Zurück zum Katalog

STARLINK-2587

AktivKommunikationVLEO
NORAD 48399·PAYLOAD·🇺🇸 United States

Gestartet May 4, 2021 von Cape Canaveral Space Force Station

Loading…

Nächste Überflüge (nächste 24 Stunden)

TLE

AktuellSource: CelesTrak SupGP

Epoche: Sep 15, 2026, 00:38 UTC

1 48399C 21038AY  26258.02687500 -.00015431  00000+0 -49639-3 0  2585
2 48399  53.1603 171.4383 0001502  81.2267 340.6036 15.31697517    12

Verfolge STARLINK-2587 in Echtzeit mit AllMySat

Download on the App Store